Location: Pitton
(51.0667°N, 1.7000°W)
Time: 05:11:06
(UTC+00:00)

In-Cosmos 22 - Pass Details

Date: 17 September 2019
Orbit: 785 x 877 km, 81.2° (Epoch: 15 October)

Event Time Altitude Azimuth Distance (km) Brightness Sun altitude
Rises 19:57:26 0° 347° (NNW) 3,298 7.8 -16.0°
Reaches altitude 10° 19:59:48 10° 348° (NNW) 2,371 7.0 -16.4°
Maximum altitude 20:05:09 89° 74° (ENE) 810 4.0 -17.1°
Enters shadow 20:09:47 15° 169° (SSE) 2,091 5.9 -17.8°
